Weather History for KTYQ - March, 2014

Change the Weather History Date:

Tuesday, March 4, 2014

  Actual Average (KEYE) Record (KEYE)
Temperature  
Mean Temperature 17 °F 38 °F  
Max Temperature 31 °F 47 °F 61 °F (2004)
Min Temperature 3 °F 29 °F 3 °F (2002)
Degree Days  
Heating Degree Days 48 27  
Month to date heating degree days 111  
Since 1 July heating degree days 4236  
Cooling Degree Days 0 0  
Month to date cooling degree days 0  
Year to date cooling degree days 0  
Moisture  
Dew Point 4 °F    
Average Humidity 56    
Maximum Humidity 75    
Minimum Humidity 32    
Precipitation  
Precipitation 0.00 in 0.06 in 0.82 in (2011)
Month to date precipitation 0.27  
Year to date precipitation 4.61  
Sea Level Pressure  
Sea Level Pressure 30.25 in    
Wind  
Wind Speed 3 mph (SSE)    
Max Wind Speed 7 mph    
Max Gust Speed -    
Visibility 10 miles    
Events      
T = Trace of Precipitation, MM = Missing Value Source: NWS Daily Summary

Daily Weather History Graph

Daily Weather History Graph

Search for Another Location

Airport or City:

Trip Planner

Search our weather history database for the weather conditions in past years. The results will help you decide how hot, cold, wet, or windy it might be!

Date:

Astronomy

Mar. 04, 2014 Rise Set
Actual Time 7:13 AM EST 6:40 PM EST
Civil Twilight 6:46 AM EST 7:07 PM EST
Nautical Twilight 6:15 AM EST 7:38 PM EST
Astronomical Twilight 5:43 AM EST 8:10 PM EST
Moon 8:59 AM EST (3/4) 10:46 PM EST (3/4)
Length of Visible Light 12h 20m
Length of Day
11h 26m
Waxing Crescent, 14% of the Moon is Illuminated
Mar 4
Waxing Crescent
Mar 8
First Quarter
Mar 16
Full
Mar 23
Last Quarter
Mar 30
New

Hourly Weather History & Observations

Time (EST) Temp. Windchill Dew Point Humidity Pressure Visibility Wind Dir Wind Speed Gust Speed Precip Events Conditions
12:15 AM 7.7 °F 1.0 °F -3.3 °F 61% 30.36 in 10.0 mi ENE 3.5 mph - N/A   Clear
12:35 AM 7.3 °F 0.5 °F -3.1 °F 62% 30.35 in 10.0 mi ENE 3.5 mph - N/A   Clear
12:55 AM 7.3 °F - -2.2 °F 65% 30.36 in 10.0 mi Calm Calm - N/A   Clear
1:15 AM 7.3 °F - -2.2 °F 65% 30.36 in 10.0 mi Calm Calm - N/A   Clear
1:35 AM 6.8 °F - -2.0 °F 67% 30.35 in 10.0 mi Calm Calm - N/A   Clear
1:55 AM 7.5 °F - -0.4 °F 70% 30.35 in 10.0 mi Calm Calm - N/A   Clear
2:15 AM 8.8 °F 2.2 °F -0.8 °F 65% 30.34 in 10.0 mi ESE 3.5 mph - N/A   Clear
2:35 AM 9.1 °F 2.6 °F -1.8 °F 61% 30.34 in 10.0 mi ESE 3.5 mph - N/A   Clear
2:55 AM 9.3 °F -1.7 °F -1.5 °F 62% 30.32 in 10.0 mi ESE 6.9 mph - N/A   Clear
3:15 AM 9.3 °F -1.7 °F -1.3 °F 62% 30.31 in 10.0 mi ESE 6.9 mph - N/A   Clear
3:35 AM 9.3 °F -1.7 °F -2.0 °F 60% 30.31 in 10.0 mi SE 6.9 mph - N/A   Clear
4:00 AM 9.5 °F -0.3 °F -1.8 °F 60% 30.30 in 10.0 mi SE 5.8 mph - N/A   Clear
4:15 AM 9.5 °F -0.3 °F -1.7 °F 61% 30.30 in 10.0 mi SE 5.8 mph - N/A   Clear
4:35 AM 9.3 °F 2.8 °F -1.3 °F 62% 30.31 in 10.0 mi SSE 3.5 mph - N/A   Clear
4:55 AM 8.8 °F - -2.0 °F 62% 30.31 in 10.0 mi Calm Calm - N/A   Clear
5:15 AM 7.7 °F - -2.2 °F 64% 30.31 in 10.0 mi Calm Calm - N/A   Clear
5:35 AM 7.7 °F - -2.2 °F 64% 30.32 in 10.0 mi Calm Calm - N/A   Clear
5:55 AM 6.8 °F -0.1 °F -2.6 °F 66% 30.33 in 10.0 mi North 3.5 mph - N/A   Clear
6:15 AM 3.7 °F - -3.5 °F 72% 30.32 in 10.0 mi Calm Calm - N/A   Clear
6:35 AM 4.3 °F - -3.3 °F 71% 30.32 in 10.0 mi Calm Calm - N/A   Scattered Clouds
6:55 AM 4.6 °F - -2.2 °F 73% 30.32 in 10.0 mi Calm Calm - N/A   Scattered Clouds
7:15 AM 7.5 °F - -0.0 °F 71% 30.31 in 10.0 mi Calm Calm - N/A   Mostly Cloudy
7:35 AM 8.6 °F - -0.2 °F 67% 30.32 in 10.0 mi Calm Calm - N/A   Scattered Clouds
7:55 AM 9.1 °F 2.6 °F -0.0 °F 66% 30.31 in 10.0 mi SE 3.5 mph - N/A   Scattered Clouds
8:15 AM 9.9 °F 3.4 °F 0.3 °F 65% 30.32 in 10.0 mi SE 3.5 mph - N/A   Scattered Clouds
8:40 AM 11.3 °F 1.9 °F 1.6 °F 65% 30.31 in 10.0 mi SSE 5.8 mph - N/A   Mostly Cloudy
8:55 AM 12.2 °F 1.7 °F 1.8 °F 63% 30.30 in 10.0 mi SSE 6.9 mph - N/A   Mostly Cloudy
9:15 AM 13.1 °F 4.0 °F 2.3 °F 62% 30.30 in 10.0 mi SSE 5.8 mph - N/A   Scattered Clouds
9:35 AM 15.1 °F 5.2 °F 3.2 °F 59% 30.28 in 10.0 mi SSE 6.9 mph - N/A   Scattered Clouds
9:55 AM 16.5 °F 9.4 °F 3.4 °F 56% 30.28 in 10.0 mi South 4.6 mph - N/A   Scattered Clouds
10:15 AM 17.2 °F 11.9 °F 3.4 °F 55% 30.28 in 10.0 mi SSE 3.5 mph - N/A   Mostly Cloudy
10:35 AM 18.5 °F 11.7 °F 4.1 °F 54% 30.28 in 10.0 mi South 4.6 mph - N/A   Overcast
10:55 AM 20.1 °F 15.2 °F 4.3 °F 50% 30.27 in 10.0 mi SSW 3.5 mph - N/A   Overcast
11:15 AM 21.0 °F 13.4 °F 4.8 °F 50% 30.25 in 10.0 mi SSW 5.8 mph - N/A   Mostly Cloudy
11:35 AM 21.9 °F 13.4 °F 5.9 °F 50% 30.25 in 10.0 mi SSW 6.9 mph - N/A   Mostly Cloudy
11:55 AM 22.5 °F 15.1 °F 5.2 °F 48% 30.25 in 10.0 mi South 5.8 mph - N/A   Overcast
12:15 PM 23.0 °F 14.7 °F 6.6 °F 50% 30.26 in 10.0 mi South 6.9 mph - N/A   Overcast
12:35 PM 23.4 °F 16.2 °F 6.1 °F 48% 30.25 in 10.0 mi South 5.8 mph - N/A   Overcast
12:55 PM 24.3 °F 18.4 °F 5.7 °F 45% 30.24 in 10.0 mi WSW 4.6 mph - N/A   Overcast
1:15 PM 25.3 °F - 5.0 °F 42% 30.23 in 10.0 mi Calm Calm - N/A   Mostly Cloudy
1:35 PM 26.2 °F - 7.0 °F 44% 30.21 in 10.0 mi Calm Calm - N/A   Mostly Cloudy
1:55 PM 26.8 °F 22.8 °F 7.5 °F 44% 30.21 in 10.0 mi SSE 3.5 mph - N/A   Scattered Clouds
2:15 PM 27.5 °F 22.2 °F 6.4 °F 41% 30.20 in 10.0 mi SW 4.6 mph - N/A   Scattered Clouds
2:35 PM 28.4 °F 22.2 °F 8.1 °F 42% 30.19 in 10.0 mi SSE 5.8 mph - N/A   Scattered Clouds
2:55 PM 29.3 °F - 4.3 °F 35% 30.18 in 10.0 mi Calm Calm - N/A   Clear
3:15 PM 30.0 °F 26.5 °F 4.3 °F 34% 30.18 in 10.0 mi SW 3.5 mph - N/A   Clear
3:35 PM 31.1 °F 27.7 °F 5.0 °F 33% 30.18 in 10.0 mi WSW 3.5 mph - N/A   Clear
3:55 PM 30.9 °F 26.2 °F 4.6 °F 33% 30.17 in 10.0 mi SW 4.6 mph - N/A   Clear
4:15 PM 30.9 °F 26.2 °F 4.3 °F 32% 30.17 in 10.0 mi SW 4.6 mph - N/A   Clear
4:35 PM 31.5 °F 28.1 °F 5.2 °F 33% 30.17 in 10.0 mi West 3.5 mph - N/A   Clear
4:55 PM 31.5 °F 28.1 °F 7.2 °F 36% 30.16 in 10.0 mi West 3.5 mph - N/A   Clear
5:15 PM 31.1 °F 27.7 °F 6.4 °F 35% 30.16 in 10.0 mi WSW 3.5 mph - N/A   Clear
5:35 PM 30.7 °F - 7.0 °F 37% 30.16 in 10.0 mi Calm Calm - N/A   Clear
5:55 PM 30.9 °F 27.5 °F 6.1 °F 35% 30.16 in 10.0 mi West 3.5 mph - N/A   Clear
6:15 PM 30.4 °F 26.9 °F 8.6 °F 40% 30.17 in 10.0 mi West 3.5 mph - N/A   Clear
6:35 PM 28.9 °F 25.2 °F 9.9 °F 45% 30.17 in 10.0 mi WNW 3.5 mph - N/A   Clear
6:55 PM 28.0 °F - 9.9 °F 47% 30.17 in 10.0 mi Calm Calm - N/A   Clear
7:15 PM 28.0 °F - 8.6 °F 44% 30.17 in 10.0 mi Calm Calm - N/A   Clear
7:35 PM 25.9 °F - 10.8 °F 53% 30.18 in 10.0 mi Calm Calm - N/A   Clear
7:55 PM 24.4 °F - 12.0 °F 59% 30.19 in 10.0 mi Calm Calm - N/A   Clear
8:15 PM 23.4 °F - 13.1 °F 65% 30.19 in 10.0 mi Calm Calm - N/A   Clear
8:35 PM 22.6 °F - 13.1 °F 67% 30.18 in 10.0 mi Calm Calm - N/A   Clear
8:55 PM 23.0 °F 18.4 °F 13.6 °F 67% 30.18 in 10.0 mi East 3.5 mph - N/A   Clear
9:15 PM 22.3 °F - 12.9 °F 67% 30.18 in 10.0 mi Calm Calm - N/A   Clear
9:35 PM 21.2 °F 16.4 °F 12.0 °F 68% 30.18 in 10.0 mi East 3.5 mph - N/A   Clear
9:55 PM 21.6 °F - 12.9 °F 69% 30.19 in 10.0 mi Calm Calm - N/A   Clear
10:15 PM 20.1 °F 15.2 °F 12.6 °F 73% 30.19 in 10.0 mi ENE 3.5 mph - N/A   Clear
10:35 PM 19.8 °F 13.2 °F 12.9 °F 75% 30.19 in 10.0 mi NE 4.6 mph - N/A   Clear
10:55 PM 21.0 °F 13.4 °F 13.3 °F 72% 30.20 in 10.0 mi NE 5.8 mph - N/A   Clear
11:15 PM 21.9 °F 17.2 °F 13.1 °F 69% 30.21 in 10.0 mi ENE 3.5 mph - N/A   Clear
11:35 PM 20.8 °F - 12.6 °F 70% 30.21 in 10.0 mi Calm Calm - N/A   Clear
11:55 PM 20.3 °F 15.4 °F 12.0 °F 70% 30.20 in 10.0 mi East 3.5 mph - N/A   Clear